Location: Anumalkud?ru
(16.4847°N, 80.6636°E)
Time: 15:18:00
(UTC+00:00)

Cosmos 1461 - Pass Details

Date: 11 April 2026
Orbit: 423 x 481 km, 65.0° (Epoch: 11 May)

Event Time Altitude Azimuth Distance (km) Brightness Sun altitude
Rises 22:21:33 0° 137° (SE) 2,515 6.5 -29.4°
Enters shadow 23:25:41 -64° 209° (SSW) 11,896 9.5 -14.7°
Maximum altitude 00:00:13 59° 294° (WNW) 558 2.6 -6.6°
